Regional Weather Roundup
Issued by NWS

Home | Current Version | Previous Version | Graphics & Text | Print | Product List | Glossary On
Versions: 1 2 3 4 5 6 7 8 9 10 11 12 13 14 15 16 17 18 19 20 21 22 23 24 25 26 27 28 29 30 31 32 33 34 35 36 37 38 39 40 41 42 43 44 45 46 47 48 49 50
000
ASUS43 KMPX 241010
RWRMN
WEATHER ROUNDUP FOR MINNESOTA
NATIONAL WEATHER SERVICE TWIN CITIES/CHANHASSEN MN
400 AM CST MON NOV 24 2014


NOTE: "FAIR" INDICATES FEW OR NO CLOUDS BELOW 12,000 FEET WITH NO
SIGNIFICANT WEATHER AND/OR OBSTRUCTIONS TO VISIBILITY. N/A MEANS
CURRENT SKY AND/OR WEATHER CONDITIONS ARE NOT AVAILABLE.

MNZ060>063-068>070-241100-
   Twin Cities Metro

CITY           SKY/WX    TMP DP  RH WIND       PRES   REMARKS
TWIN CITIES    CLOUDY    29  26  89 NW24G31   29.30S WCI  15
ST PAUL        CLOUDY    32  28  85 MISG      29.31R
CRYSTAL        CLOUDY    29  24  82 NW22G32   29.31R WCI  15
BLAINE         CLOUDY    30  28  93 NW15G25   29.30R WCI  19
LAKEVILLE      CLOUDY    28  27  93 W14       29.29F WCI  17
EDEN PRAIRIE   CLOUDY    29  24  82 NW15G29   29.31R WCI  18
SOUTH ST PAUL  CLOUDY    32  29  87 NW12G21   29.29S WCI  23
LAKE ELMO      CLOUDY    32  32 100 NW13G18   29.28S WCI  22
$$
MNZ001>005-007-008-013>017-022>024-027-028-241100-
   Northwest Minnesota

CITY           SKY/WX    TMP DP  RH WIND       PRES   REMARKS
BEMIDJI        CLOUDY    17  14  90 NW14      29.43S WCI   2
HALLOCK        CLOUDY    10   7  85 N26G36    29.63S WCI -11
ROSEAU         LGT SNOW  16   9  73 NW18      29.54R WCI  -1
WARROAD        FLURRIES  14  10  85 NW15      29.52R WCI  -1
THIEF RVR FALL CLOUDY    12   9  85 NW20G26   29.54S WCI  -6
CROOKSTON      LGT SNOW  12   9  85 N23       29.60S WCI  -7
FOSSTON        LGT SNOW  10   9  92 NW17G23   29.51S WCI  -7
DETROIT LAKES  LGT SNOW  14  12  92 NW16G25   29.50S WCI  -2
MOORHEAD       LGT SNOW  14  12  92 N25       29.59R WCI  -5
PARK RAPIDS    CLOUDY    16  12  84 NW18      29.42R WCI   0
MAHNOMEN       LGT SNOW  13   9  85 NW16      29.51S WCI  -4
$$
MNZ006-009>011-018-025>026-241100-
   North Central Minnesota

CITY           SKY/WX    TMP DP  RH WIND       PRES   REMARKS
BAUDETTE       LGT SNOW  20  17  88 NW20G31   29.44R FOG     WCI   4
FLAG ISLAND    CLOUDY    16  12  86 N18G28    29.50R WCI  -1
INTL FALLS     CLOUDY    30  26  85 N12G23    29.35R WCI  20
WASKISH        MIX PCPN  23  21  93 NW13      29.42S WCI  11
BIG FORK       MIX PCPN  27  25  93 NW9       29.35S WCI  17
LONGVILLE      CLOUDY    19  18  93 NW13G22   29.38S WCI   7
GRAND RAPIDS   CLOUDY    25  21  86 NW17      29.31F WCI  11
CRANE LAKE     LGT SNOW  32  30  93 N6        29.31S WCI  26
ORR            MIX PCPN  30  28  93 NW8       29.27F WCI  23
COOK           LGT SNOW  32  32 100 NW7       29.28F WCI  26
WALKER         CLOUDY    17  15  90 NW8G20    29.41R WCI   6
$$
MNZ012-019>021-037-241100-
   Northeast Minnesota

CITY           SKY/WX    TMP DP  RH WIND       PRES   REMARKS
DULUTH         LGT SNOW  34  31  88 NW14G22   29.21F FOG     WCI  25
ELY            LGT SNOW  32  32 100 NW8       29.24S WCI  25
HIBBING        LGT SNOW  31  27  85 NW15G22   29.27F FOG     WCI  20
EVELETH        LGT SNOW  32  32 100 NW13      29.26F WCI  22
DULUTH HARBOR  DRIZZLE   36  34  93 CALM      29.24F
TWO HARBORS    LGT RAIN  37  34  87 NW10G22   29.17F
SILVER BAY     DRIZZLE   36  34  93 NW8       29.16F
GRAND MARAIS     N/A     38  34  85 N18G33    29.12F
G MARAIS ARPRT MIX PCPN  30  28  93 N15G21    29.13F WCI  19
$$
MNZ029>031-032-039>041-046>048-054>057-064-241100-
   West Central Minnesota

CITY           SKY/WX    TMP DP  RH WIND       PRES   REMARKS
FERGUS FALLS   FLURRIES  14   9  79 N31       29.55S WCI  -7
WHEATON        FLURRIES  14   9  79 NW20G31   29.58R WCI  -3
MORRIS         LGT SNOW  16  12  86 NW26G39   29.49S WCI  -3
ALEXANDRIA     FLURRIES  17  12  80 NW20G29   29.44S WCI   1
ELBOW LAKE     LGT SNOW  15  11  85 NW25G32   29.50S WCI  -5
WADENA         LGT SNOW  16  12  86 NW17      29.43S WCI   0
GLENWOOD       CLOUDY    18  12  79 NW25      29.44S WCI  -1
APPLETON       CLOUDY    18  12  79 NW24G35   29.52S WCI   0
BENSON         FLURRIES  18  12  79 N26G35    29.48S WCI  -1
ORTONVILLE     CLOUDY    16   9  73 NW24G32   29.53S WCI  -3
MADISON        PTCLDY    21  14  73 NW29G36   29.53S WCI   3
WILLMAR        CLOUDY    19  16  86 NW28G35   29.44F WCI   1
$$
MNZ033>034-036-042>043-049>051-058-059-241100-
   Central Minnesota

CITY           SKY/WX    TMP DP  RH WIND       PRES   REMARKS
ST CLOUD       CLOUDY    24  18  77 NW21      29.35F WCI   9
SAUK CENTRE    CLOUDY    19  14  82 NW21G28   29.41S WCI   2
PAYNESVILLE    CLOUDY    18  15  88 W15G22    29.42S WCI   4
AITKIN         CLOUDY    27  19  74 NW9G18    29.33S WCI  17
PINE RIVER     CLOUDY    19  18  93 NW13G22   29.43S WCI   7
BRAINERD       CLOUDY    21  18  88 NW14G23   29.37S WCI   8
STAPLES        CLOUDY    18  16  93 NW16G25   29.41S WCI   3
LONG PRAIRIE   CLOUDY    19  14  79 W20G26    29.41S WCI   4
LITTLE FALLS   CLOUDY    21  18  86 NW14G21   29.39S WCI   8
LITCHFIELD     CLOUDY    23  19  86 NW18G30   29.39S WCI   9
BUFFALO        CLOUDY    26  21  81 NW14G22   29.36S WCI  14
MAPLE LAKE     CLOUDY    25  22  85 NW17G24   29.37R WCI  12
$$
MNZ037-044-045-052-053-241100-
   East Central Minnesota

CITY           SKY/WX    TMP DP  RH WIND       PRES   REMARKS
PRINCETON      CLOUDY    28  23  80 NW18G26   29.33R WCI  16
MORA           CLOUDY    30  27  86 NW18G26   29.31S WCI  18
CAMBRIDGE      CLOUDY    30  25  80 NW16      29.28S WCI  19
RUSH CITY      CLOUDY    32  30  92 NW8G20    29.28S WCI  25
MOOSE LAKE     CLOUDY    32  30  93 NW14G21   29.25F WCI  22
HINCKLEY       CLOUDY    32  32 100 NW14G23   29.27S WCI  22
CLOQUET        LGT SNOW  34  30  86 NW17G24   29.24S WCI  23
MCGREGOR       CLOUDY    27  27 100 NW9       29.31F WCI  17
$$
MNZ071>073-080-081-089-090-097-098-241100-
   Southwest Minnesota

CITY           SKY/WX    TMP DP  RH WIND       PRES   REMARKS
MONTEVIDEO     CLOUDY    18  14  86 N24G36    29.51R WCI   0
GRANITE FALLS  CLOUDY    19  14  80 NW28G35   29.51R WCI   1
CANBY          CLOUDY    19  13  78 NW20G30   29.54R WCI   3
MARSHALL       CLOUDY    19  10  68 NW28G35   29.49S WCI   1
REDWOOD FALLS  CLOUDY    20  14  77 NW21G39   29.45S WCI   4
OLIVIA         CLOUDY    21  18  86 NW28G33   29.44S WCI   3
PIPESTONE      CLOUDY    18  12  79 N24G30    29.49S WCI   0
WINDOM         CLOUDY    19  18  93 NW26G32   29.43S WCI   1
WORTHINGTON    CLOUDY    19  14  79 NW22      29.47R WCI   3
JACKSON        CLOUDY    23  19  86 NW22G32   29.42S WCI   8
TRACY          CLOUDY    20  16  82 NW21G30   29.48R WCI   4
SLAYTON        CLOUDY    19  15  82 NW29G35   29.46S WCI   1
$$
MNZ065>067-074>077-082>085-091>093-241100-
   South Central Minnesota

CITY           SKY/WX    TMP DP  RH WIND       PRES   REMARKS
MANKATO        CLOUDY    25  18  74 NW22G29   29.37R WCI  10
NEW ULM        CLOUDY    21  18  86 NW23G33   29.40R WCI   5
ST JAMES       CLOUDY    25  19  80 NW26G37   29.42R WCI   9
FAIRMONT       CLOUDY    23  18  80 NW23G30   29.40S WCI   7
GLENCOE        CLOUDY    26  23  89 NW21G26   29.36S WCI  12
FARIBAULT      CLOUDY    30  27  86 W14G28    29.31S WCI  20
OWATONNA       CLOUDY    28  27  93 W22       29.31S WCI  15
WASECA         CLOUDY    25  21  86 NW22G30   29.34S FOG     WCI  10
ALBERT LEA     CLOUDY    27  25  93 NW20G30   29.30F WCI  13
$$
MNZ078>079-086>088-094>096-241100-
   Southeast Minnesota

CITY           SKY/WX    TMP DP  RH WIND       PRES   REMARKS
ROCHESTER      LGT SNOW  29  27  92 NW23G29   29.24S VSB 1   WCI  15
RED WING         N/A     34  30  86 NW10G18   29.25S WCI  26
STANTON        CLOUDY    32  27  83 NW18      29.28F WCI  20
DODGE CENTER   LGT SNOW  28  28 100 NW16G29   29.26S VSB 3/4 WCI  17
WINONA         LGT RAIN  36  34  93 NW10G18   29.21S
AUSTIN         CLOUDY    28  27  93 NW25G32   29.27F WCI  14
PRESTON        LGT SNOW  29  28  94 NW21G28   29.23S WCI  16
$$
ABBREVIATIONS USED IN REMARKS
   TC - TEMPERATURES IN CELSIUS
  WCI - WIND CHILL INDEX
   HX - HEAT INDEX
  VSB - VISIBILITY
$$



USA.gov is the U.S. government's official web portal to all federal, state and local government web resources and services.